[[{"header":{"parameterUnit":"m.s-1","parameterCategory":1,"la1":30.2991,"la2":30.254,"lo1":-89.0895,"lo2":-89.0444,"dy":0.0017,"dx":0.0017,"nx":28,"ny":28,"refTime":"2023-11-12T03:00:00:Z","depth":0,"parameterNumber":2,"parameterNumberName":"U-component_of_WINDS"},"data":[0,0,0,0,0,0,0,0,0,0,0,0,0,0,0,0,0,0,0,0,0,0,0,0,0,0,0,0,0,0,0,0,0,0,0,0,0,0,0,0,0,0,0,0,0,0,0,0,0,0,0,0,0,0,0,0,0,0,-3.8063,-3.8063,0,-3.808,-3.808,-3.808,-3.7994,-3.7992,-3.7989,-3.7987,-3.8004,-3.8007,-3.801,0,0,0,0,0,0,0,0,0,0,0,0,0,-3.7955,-3.7957,-3.8063,-3.8063,-3.8063,-3.808,-3.808,-3.808,-3.7995,-3.7992,-3.7989,-3.7986,-3.8003,-3.8006,-3.801,0,0,0,0,0,0,0,0,0,0,0,0,0,-3.799,-3.7958,-3.8063,-3.8023,-3.8019,-3.808,-3.808,-3.808,-3.7995,-3.7992,-3.7988,-3.7984,-3.8002,-3.8006,-3.801,-3.811,0,0,-3.8023,-3.8025,0,0,0,0,0,0,0,0,-3.7988,-3.7994,-3.8028,-3.8025,-3.8022,-3.8031,-3.8048,-3.809,-3.7996,-3.8004,-3.7987,-3.7983,-3.8016,-3.8019,-3.803,-3.8111,-3.8112,-3.8023,-3.8026,-3.8028,-3.8029,0,0,0,0,0,0,0,-3.7986,-3.7993,-3.8069,-3.8029,-3.8025,-3.8003,-3.8004,-3.8056,-3.8031,-3.8003,-3.7997,-3.8,-3.8014,-3.8026,-3.803,-3.8112,-3.8023,-3.8027,-3.8029,-3.8031,-3.8276,-3.828,0,0,0,0,0,0,-3.7989,-3.7991,-3.8069,-3.807,-3.7995,-3.8008,-3.8009,-3.8032,-3.803,-3.8026,-3.8004,-3.7996,-3.8021,-3.8025,-3.803,-3.8147,-3.8028,-3.8031,-3.8034,-3.8272,-3.8277,-3.8281,0,0,0,0,0,0,-3.7987,-3.7997,-3.8068,-3.8029,-3.8036,-3.8014,-3.804,-3.8034,-3.8047,-3.803,-3.8025,-3.8022,-3.8018,-3.8024,-3.8091,-3.8147,-3.8033,-3.8037,-3.8267,-3.8273,-3.8279,-3.8383,0,0,0,0,0,0,-3.7984,-3.7996,-3.8035,-3.8031,-3.8039,-3.813,-3.8044,-3.8037,-3.8054,-3.8045,-3.8046,-3.8042,-3.8016,-3.8085,-3.8095,-3.8151,-3.804,-3.8262,-3.827,-3.8277,-3.8374,-3.8392,-3.8406,0,0,0,0,0,-3.7981,-3.8063,-3.8037,-3.8047,-3.8086,-3.8133,-3.8138,-3.8106,-3.8059,-3.8097,-3.8086,-3.8042,-3.8139,-3.8093,-3.8103,-3.8161,-3.8258,-3.8268,-3.8276,-3.8367,-3.8388,-3.8406,0,0,0,0,0,0,-3.8074,-3.8062,-3.8033,-3.8116,-3.8126,-3.8118,-3.8165,-3.8129,-3.8153,-3.8143,-3.8102,-3.8103,-3.8177,-3.8175,-3.8124,-3.8257,-3.819,-3.8202,-3.8256,-3.8276,-3.8292,-3.8291,-3.8044,0,0,0,0,0,-3.8104,-3.8144,-3.813,-3.8206,-3.8212,-3.8188,-3.8207,-3.8182,-3.819,-3.8194,-3.8188,-3.8198,-3.8231,-3.8253,-3.8282,-3.8373,-3.8372,-3.8418,-3.8434,-3.8447,-3.8458,-3.8506,-3.8526,-3.8311,-3.8311,-3.831,0,0,-3.8167,-3.8166,-3.8193,-3.8224,-3.8229,-3.827,-3.8192,-3.8239,-3.8269,-3.8201,-3.8264,-3.826,-3.8268,-3.8348,-3.8382,-3.8349,-3.8517,-3.8459,-3.8469,-3.8473,-3.8517,-3.8538,-3.8556,-3.8317,-3.8316,-3.8315,0,0,-3.8304,-3.8306,-3.8369,-3.8375,-3.8384,-3.8367,-3.8382,-3.838,-3.8374,-3.8437,-3.8386,-3.8421,-3.8478,-3.8486,-3.8498,-3.8637,-3.8597,-3.8647,-3.8732,-3.8779,-3.8796,-3.8811,-3.8861,-3.8879,-3.8658,-3.8658,-3.8658,0,-3.8381,-3.8442,-3.8406,-3.8456,-3.8472,-3.8412,-3.8475,-3.8483,-3.85,-3.8512,-3.8474,-3.8544,-3.8545,-3.8626,-3.866,-3.8671,-3.8687,-3.8648,-3.8797,-3.8811,-3.8825,-3.8872,-3.8891,-3.8664,-3.8664,-3.8663,-3.8662,0,-3.8537,-3.8579,-3.8629,-3.8648,-3.8668,-3.8725,-3.8698,-3.8723,-3.8696,-3.8683,-3.8747,-3.8746,-3.8774,-3.8791,-3.8765,-3.8869,-3.8847,-3.8804,-3.8736,-3.8852,-3.8896,-3.8913,-3.8673,-3.8671,-3.8669,-3.8668,0,0,-3.8733,-3.8731,-3.875,-3.8757,-3.8762,-3.8794,-3.8848,-3.8875,-3.8898,-3.8911,-3.8955,-3.9005,-3.8964,-3.8978,-3.8952,-3.8993,-3.9104,-3.8944,-3.8944,-3.8974,-3.9218,-3.9251,-3.9273,-3.9077,-3.908,-3.9083,-3.9217,0,-3.8867,-3.8959,-3.8928,-3.9022,-3.9061,-3.9004,-3.9051,-3.9059,-3.9048,-3.9079,-3.9067,-3.9103,-3.9047,-3.9055,-3.9093,-3.9082,-3.9152,-3.9072,-3.9118,-3.912,-3.9118,-3.9295,-3.9331,-3.9458,-3.9234,-3.9237,-3.9239,0,-3.9035,-3.9056,-3.9154,-3.9152,-3.9167,-3.921,-3.9232,-3.9263,-3.927,-3.9259,-3.9274,-3.9239,-3.9291,-3.9223,-3.9295,-3.9241,-3.9257,-3.9255,-3.9259,-3.9263,-3.9187,-3.9304,-3.9497,-3.9517,-3.9265,-3.9263,-3.9261,0,-3.917,-3.9222,-3.9287,-3.9295,-3.9294,-3.9325,-3.9326,-3.933,-3.9348,-3.9368,-3.9379,-3.9405,-3.9419,-3.9439,-3.9412,-3.9365,-3.9487,-3.9417,-3.948,-3.9481,-3.9509,-3.9508,-3.9708,-3.9519,-3.9519,-3.9519,-3.9518,0,-3.9323,-3.9385,-3.9347,-3.9388,-3.9455,-3.9419,-3.9487,-3.9481,-3.9485,-3.9523,-3.9475,-3.9512,-3.9473,-3.9506,-3.9485,-3.9547,-3.9554,-3.9547,-3.954,-3.9551,-3.9553,-3.9562,-3.9553,-3.9524,-3.9523,-3.9522,-3.9521,0,-3.9485,-3.9462,-3.9529,-3.9523,-3.9522,-3.9573,-3.9567,-3.9603,-3.9589,-3.9638,-3.9647,-3.9625,-3.9661,-3.9635,-3.9671,-3.9657,-3.9739,-3.9721,-3.9737,-3.9732,-3.9797,-3.9792,-4.0012,-4.0039,-3.9832,-3.9834,-3.9836,0,-3.9584,-3.9631,-3.9629,-3.9651,-3.9655,-3.9691,-3.971,-3.9675,-3.9697,-3.9708,-3.9744,-3.9776,-3.98,-3.986,-3.9847,-3.9874,-3.9856,-3.9931,-3.986,-3.9869,-3.9858,-3.9856,-3.986,-3.9946,-3.9948,-3.995,-3.9952,0,-3.9764,-3.975,-3.9779,-3.9804,-3.9827,-3.9845,-3.9859,-3.988,-3.9845,-3.9871,-3.9908,-3.9926,-3.9963,-3.9996,-4.0018,-4.0018,-3.998,-3.9974,-3.999,-4.0002,-4.001,-4.0007,-3.9777,-3.997,-3.9968,-3.9966,-3.9966,-3.9965,-3.9898,-3.9936,-3.9941,-3.9975,-3.9982,-3.9996,-4.003,-4.002,-4.005,-4.0077,-4.0055,-4.0099,-4.0104,-4.013,-4.0135,-4.0169,-4.0138,-4.0161,-4.0167,-4.0174,-4.0183,-4.0005,-4.0173,-4.0172,-4.0172,-4.0171,-4.0171,0,-4.0075,-4.0075,-4.0107,-4.0128,-4.0154,-4.0115,-4.0128,-4.0153,-4.0192,-4.0201,-4.0225,-4.0267,-4.0298,-4.0287,-4.0315,-4.0344,-4.0327,-4.0352,-4.035,-4.0351,-4.0209,-4.0193,-4.0366,-4.0366,-4.0366,-4.0365,-4.0365,-4.0365,-4.0171,-4.0234,-4.0221,-4.0287,-4.0287,-4.0329,-4.034,-4.0353,-4.036,-4.0409,-4.0434,-4.0427,-4.0428,-4.0455,-4.0482,-4.0477,-4.049,-4.0522,-4.0512,-4.038,-4.0361,-4.0342,-4.0327,-4.0525,-4.0525,-4.0651,-4.0652,-4.0653]},{"header":{"parameterUnit":"m.s-1","parameterCategory":1,"la1":30.2991,"la2":30.254,"lo1":-89.0895,"lo2":-89.0444,"dy":0.0017,"dx":0.0017,"nx":28,"ny":28,"refTime":"2023-11-12T03:00:00:Z","depth":0,"parameterNumber":3,"parameterNumberName":"V-component_of_WINDS"},"data":[0,0,0,0,0,0,0,0,0,0,0,0,0,0,0,0,0,0,0,0,0,0,0,0,0,0,0,0,0,0,0,0,0,0,0,0,0,0,0,0,0,0,0,0,0,0,0,0,0,0,0,0,0,0,0,0,0,0,-5.071,-5.071,0,-5.0783,-5.0784,-5.0785,-5.0741,-5.0738,-5.0736,-5.0734,-5.0805,-5.0809,-5.0812,0,0,0,0,0,0,0,0,0,0,0,0,0,-5.0525,-5.0529,-5.071,-5.0711,-5.0711,-5.0783,-5.0784,-5.0785,-5.0741,-5.0738,-5.0736,-5.0733,-5.0804,-5.0808,-5.0813,0,0,0,0,0,0,0,0,0,0,0,0,0,-5.0603,-5.053,-5.0709,-5.0698,-5.0698,-5.0783,-5.0784,-5.0785,-5.0742,-5.0738,-5.0735,-5.0732,-5.0802,-5.0808,-5.0813,-5.0912,0,0,-5.0831,-5.0833,0,0,0,0,0,0,0,0,-5.0598,-5.0609,-5.0699,-5.0699,-5.0699,-5.075,-5.0745,-5.0828,-5.0742,-5.0725,-5.0734,-5.0731,-5.0789,-5.0795,-5.0816,-5.0915,-5.0918,-5.0831,-5.0835,-5.0837,-5.0839,0,0,0,0,0,0,0,-5.0593,-5.0606,-5.0738,-5.07,-5.07,-5.0688,-5.0695,-5.076,-5.0773,-5.0726,-5.0723,-5.0733,-5.0788,-5.0811,-5.0817,-5.0919,-5.0831,-5.0836,-5.084,-5.0842,-5.1102,-5.1105,0,0,0,0,0,0,-5.0589,-5.0602,-5.0736,-5.0741,-5.064,-5.0694,-5.0702,-5.0736,-5.0773,-5.0775,-5.0735,-5.073,-5.0802,-5.0811,-5.082,-5.0937,-5.0837,-5.0843,-5.0846,-5.1099,-5.1103,-5.1106,0,0,0,0,0,0,-5.0585,-5.0602,-5.0733,-5.0671,-5.0686,-5.07,-5.0739,-5.074,-5.0762,-5.078,-5.0781,-5.0756,-5.08,-5.0811,-5.0889,-5.0939,-5.0845,-5.0851,-5.1094,-5.11,-5.1105,-5.1173,0,0,0,0,0,0,-5.058,-5.0601,-5.064,-5.0672,-5.069,-5.0804,-5.0742,-5.0743,-5.0773,-5.0767,-5.08,-5.0802,-5.0798,-5.0881,-5.0895,-5.0945,-5.0855,-5.109,-5.1097,-5.1103,-5.1166,-5.118,-5.1191,0,0,0,0,0,-5.0574,-5.0655,-5.0642,-5.0658,-5.0739,-5.0807,-5.0817,-5.0813,-5.0777,-5.0815,-5.0826,-5.0801,-5.0931,-5.0889,-5.0905,-5.0957,-5.1087,-5.1095,-5.1102,-5.1161,-5.1177,-5.1191,0,0,0,0,0,0,-5.0627,-5.0659,-5.0645,-5.0739,-5.0771,-5.0799,-5.0848,-5.083,-5.0871,-5.0864,-5.0855,-5.0863,-5.0944,-5.0958,-5.0912,-5.1054,-5.1003,-5.1014,-5.1042,-5.1058,-5.107,-5.1065,-5.086,0,0,0,0,0,-5.0649,-5.0703,-5.0728,-5.0809,-5.0825,-5.0834,-5.0863,-5.0857,-5.0889,-5.0902,-5.0918,-5.0949,-5.0996,-5.1028,-5.1072,-5.1168,-5.1173,-5.1211,-5.1224,-5.1234,-5.1243,-5.1294,-5.1311,-5.1132,-5.1132,-5.1132,0,0,-5.0697,-5.0721,-5.0755,-5.082,-5.0844,-5.0898,-5.0845,-5.0905,-5.0945,-5.091,-5.0985,-5.0998,-5.1031,-5.1118,-5.1158,-5.1133,-5.1294,-5.1244,-5.1252,-5.1256,-5.1304,-5.132,-5.1335,-5.1137,-5.1136,-5.1135,0,0,-5.0811,-5.0835,-5.0905,-5.093,-5.0967,-5.0972,-5.0989,-5.102,-5.1028,-5.1104,-5.1078,-5.1124,-5.1207,-5.1231,-5.1254,-5.1377,-5.1355,-5.1391,-5.1457,-5.1506,-5.152,-5.1532,-5.1575,-5.1591,-5.1401,-5.1401,-5.1401,0,-5.0864,-5.0947,-5.0942,-5.1004,-5.1033,-5.1005,-5.1075,-5.1098,-5.1148,-5.1167,-5.1139,-5.1241,-5.1262,-5.1353,-5.1383,-5.1403,-5.1421,-5.1388,-5.1519,-5.1531,-5.1542,-5.1583,-5.1599,-5.1405,-5.1405,-5.1404,-5.1404,0,-5.101,-5.1068,-5.1119,-5.117,-5.1204,-5.1269,-5.1272,-5.1307,-5.1298,-5.1305,-5.1382,-5.1405,-5.1454,-5.1475,-5.1466,-5.1565,-5.1549,-5.152,-5.1469,-5.1564,-5.1602,-5.1618,-5.1411,-5.141,-5.1409,-5.1408,0,0,-5.116,-5.1207,-5.1226,-5.1248,-5.1286,-5.133,-5.1393,-5.1442,-5.1472,-5.1506,-5.1558,-5.1628,-5.1601,-5.1628,-5.1621,-5.1664,-5.1759,-5.163,-5.163,-5.1652,-5.1869,-5.189,-5.1908,-5.1744,-5.1747,-5.175,-5.1866,0,-5.1276,-5.1389,-5.1386,-5.149,-5.1542,-5.1516,-5.1571,-5.1599,-5.1608,-5.1652,-5.166,-5.171,-5.1671,-5.1687,-5.1729,-5.1739,-5.1802,-5.173,-5.1791,-5.1793,-5.1784,-5.1928,-5.1952,-5.206,-5.1881,-5.1883,-5.1885,0,-5.1427,-5.1468,-5.1578,-5.1608,-5.163,-5.168,-5.1724,-5.1767,-5.1798,-5.1801,-5.183,-5.1816,-5.1878,-5.1826,-5.191,-5.1861,-5.1886,-5.1894,-5.1898,-5.1904,-5.1845,-5.1937,-5.2095,-5.2111,-5.1908,-5.1907,-5.1905,0,-5.1524,-5.1607,-5.1683,-5.1703,-5.174,-5.1776,-5.1793,-5.1821,-5.185,-5.1888,-5.1907,-5.1951,-5.1975,-5.2009,-5.2007,-5.1969,-5.2092,-5.2039,-5.2095,-5.2095,-5.2122,-5.212,-5.2285,-5.2138,-5.2138,-5.2138,-5.2137,0,-5.1654,-5.1722,-5.1728,-5.1774,-5.1849,-5.1844,-5.1918,-5.1931,-5.1956,-5.2003,-5.1983,-5.2027,-5.2022,-5.2066,-5.2064,-5.2134,-5.2145,-5.2148,-5.2146,-5.215,-5.2149,-5.2165,-5.2158,-5.2142,-5.2141,-5.214,-5.214,0,-5.1776,-5.1783,-5.1864,-5.1893,-5.1902,-5.1955,-5.1979,-5.2023,-5.2029,-5.2089,-5.2103,-5.2112,-5.2163,-5.2165,-5.2222,-5.2221,-5.2306,-5.2296,-5.2296,-5.2294,-5.235,-5.2344,-5.253,-5.2554,-5.2392,-5.2394,-5.2395,0,-5.1858,-5.191,-5.1945,-5.1976,-5.1996,-5.2046,-5.2077,-5.2073,-5.2105,-5.2144,-5.2182,-5.2232,-5.2271,-5.2353,-5.2364,-5.2408,-5.2399,-5.2461,-5.2405,-5.2406,-5.2399,-5.2396,-5.2401,-5.2472,-5.2474,-5.2475,-5.2476,0,-5.2004,-5.2004,-5.205,-5.2097,-5.2134,-5.217,-5.2203,-5.2229,-5.2229,-5.2266,-5.2319,-5.2349,-5.2409,-5.2457,-5.25,-5.2515,-5.2495,-5.2494,-5.2509,-5.2512,-5.251,-5.2512,-5.2326,-5.2489,-5.2488,-5.2487,-5.2486,-5.2486,-5.2108,-5.2153,-5.2184,-5.2235,-5.226,-5.2292,-5.2334,-5.2346,-5.2391,-5.244,-5.2435,-5.2493,-5.2521,-5.2576,-5.2595,-5.2639,-5.2617,-5.2639,-5.2645,-5.265,-5.2656,-5.2504,-5.2647,-5.2646,-5.2646,-5.2646,-5.2645,0,-5.2252,-5.2271,-5.2318,-5.2366,-5.2406,-5.2386,-5.2421,-5.2455,-5.2507,-5.2536,-5.2576,-5.2635,-5.2682,-5.2697,-5.2742,-5.2774,-5.2766,-5.2786,-5.2783,-5.2787,-5.2673,-5.2656,-5.2792,-5.2792,-5.2792,-5.2792,-5.2792,-5.2792,-5.2332,-5.2406,-5.241,-5.2496,-5.2514,-5.2572,-5.2594,-5.2623,-5.2646,-5.2714,-5.2754,-5.2763,-5.2786,-5.2832,-5.2874,-5.2876,-5.2893,-5.2917,-5.2916,-5.281,-5.2795,-5.2781,-5.2764,-5.2921,-5.2921,-5.3026,-5.3027,-5.3028]}]]